Alajuela, Costa Rica

1:33 AM CST on January 21, 2018 (GMT -0600)
Alajuela

Weather History for 78762 - February, 2013

Change the Weather History Date:

Thursday, February 21, 2013

  Actual Average Record
Temperature  
Mean Temperature 75 °F -  
Max Temperature 82 °F 82 °F - ()
Min Temperature 68 °F 64 °F - ()
Cooling Degree Days 10    
Growing Degree Days 25 (Base 50)    
Moisture  
Dew Point 58 °F    
Average Humidity 56    
Maximum Humidity 73    
Minimum Humidity 32    
Precipitation  
Precipitation 0.00 in 0.02 in - ()
Sea Level Pressure  
Sea Level Pressure 29.91 in    
Wind  
Wind Speed 12 mph ()    
Max Wind Speed 23 mph    
Max Gust Speed 29 mph    
Visibility 7.6 miles    
Events      
T = Trace of Precipitation, MM = Missing Value Source: Averaged Metar Reports

Daily Weather History Graph

Daily Weather History Graph

Search for Another Location

Airport or City:

Trip Planner

Search our weather history database for the weather conditions in past years. The results will help you decide how hot, cold, wet, or windy it might be!

Date:

Astronomy

Feb. 21, 2013 Rise Set
Actual Time 5:54 AM CST 5:46 PM CST
Civil Twilight 5:33 AM CST 6:07 PM CST
Nautical Twilight 5:08 AM CST 6:32 PM CST
Astronomical Twilight 4:43 AM CST 6:57 PM CST
Moon 2:26 PM CST 2:30 AM CST
Length of Visible Light 12h 34m
Length of Day
11h 52m
Waxing Gibbous, 84% of the Moon is Illuminated
Feb 21
Waxing Gibbous
Feb 25
Full
Mar 4
Last Quarter
Mar 11
New
Mar 19
First Quarter

Hourly Weather History & Observations

Time (CST) Temp. Heat Index Dew Point Humidity Pressure Visibility Wind Dir Wind Speed Gust Speed Precip Events Conditions
12:00 AM 70 °F - 59 °F 60% 29.78 in 12 mi ESE 12.7 mph - -  
12:00 AM 69.8 °F - 59.0 °F 68% 29.94 in - East 12.7 mph - N/A   Clear
1:00 AM 69.8 °F - 59.0 °F 68% 29.93 in - ESE 12.7 mph - N/A   Clear
2:00 AM 69.8 °F - 59.0 °F 68% 29.90 in - SE 13.8 mph 25.3 mph N/A   Clear
3:00 AM 70 °F - 58 °F 58% 29.79 in 12 mi East 23.0 mph - -  
3:00 AM 69.8 °F - 59.0 °F 68% 29.89 in - East 11.5 mph 23.0 mph N/A   Clear
4:00 AM 69.8 °F - 59.0 °F 68% 29.89 in - East 12.7 mph - N/A   Clear
5:00 AM 69.8 °F - 59.0 °F 68% 29.91 in - East 10.4 mph 21.9 mph N/A   Clear
6:00 AM 69 °F - 59 °F 63% 29.81 in 12 mi NE 10.4 mph - -   Scattered Clouds
6:00 AM 68.0 °F - 59.0 °F 73% 29.95 in 6.2 mi NE 10.4 mph - N/A   Partly Cloudy
7:00 AM 71.6 °F - 59.0 °F 64% 29.96 in 6.2 mi East 11.5 mph - N/A   Partly Cloudy
8:00 AM 75.2 °F - 59.0 °F 57% 29.97 in 6.2 mi East 12.7 mph - N/A   Partly Cloudy
9:00 AM 77.0 °F - 59.0 °F 54% 29.98 in 6.2 mi East 16.1 mph 28.8 mph N/A   Partly Cloudy
10:00 AM 80.6 °F 82.3 °F 64.4 °F 58% 29.98 in 6.2 mi East 15.0 mph 28.8 mph N/A   Partly Cloudy
11:00 AM 82.4 °F 82.0 °F 57.2 °F 42% 29.96 in 6.2 mi ESE 13.8 mph 25.3 mph N/A   Partly Cloudy
12:00 PM 82 °F - 57 °F 32% 29.78 in 12 mi East 13.8 mph - -   Scattered Clouds
12:00 PM 82.4 °F 82.0 °F 57.2 °F 42% 29.94 in 6.2 mi East 13.8 mph - N/A   Partly Cloudy
1:00 PM 82.4 °F 82.0 °F 57.2 °F 42% 29.94 in 6.2 mi East 12.7 mph - N/A   Partly Cloudy
2:00 PM 80.6 °F 80.5 °F 55.4 °F 42% 29.92 in 6.2 mi East 12.7 mph 24.2 mph N/A   Partly Cloudy
3:00 PM 80 °F - 56 °F 33% 29.73 in 12 mi East 15.0 mph - -   Scattered Clouds
3:00 PM 80.6 °F 80.5 °F 55.4 °F 42% 29.89 in 6.2 mi East 15.0 mph - N/A   Partly Cloudy
4:00 PM 80.6 °F 80.5 °F 55.4 °F 42% 29.89 in 6.2 mi ENE 13.8 mph 24.2 mph N/A   Partly Cloudy
5:00 PM 77.0 °F - 55.4 °F 47% 29.91 in 6.2 mi East 12.7 mph 24.2 mph N/A   Partly Cloudy
6:00 PM 73.4 °F - 57.2 °F 57% 29.93 in 6.2 mi ESE 8.1 mph - N/A   Partly Cloudy
7:00 PM 73.4 °F - 55.4 °F 53% 29.97 in 6.2 mi East 10.4 mph - N/A   Partly Cloudy
8:00 PM 69.8 °F - 57.2 °F 64% 29.99 in 6.2 mi ESE 8.1 mph - N/A   Partly Cloudy
9:00 PM 70 °F - 55 °F 50% 29.83 in 12 mi ENE 17.3 mph - -   Scattered Clouds
9:00 PM 69.8 °F - 55.4 °F 60% 30.00 in 6.2 mi ENE 17.3 mph - N/A   Partly Cloudy
10:00 PM 68.0 °F - 57.2 °F 68% 29.99 in 6.2 mi SE 11.5 mph - N/A   Partly Cloudy
11:00 PM 68.0 °F - 57.2 °F 68% 29.98 in 6.2 mi SE 16.1 mph - N/A   Partly Cloudy